sat.trackr.live / text

‹ back to catalog

STARLINK-35003

NORAD 65413 · 2025-192K

PAYLOAD ACTIVE UNKNOWN

§ Identity

Operator
Country
US
Launch date
2025-08-31
Launch site
AFETR
Launch vehicle
Mass (kg)
RCS (m²)

Purposes: comms

External: N2YO · Heavens-Above · Gunter

§ Orbital elements

Epoch: 2026-09-20T21:57:02.653056Z

Period
93.85 min
Inclination
53.1593°
Eccentricity
0.0001278
Mean motion
15.34401568 rev/d
Perigee alt
461.8 km
Apogee alt
463.6 km
Semi-major
6,840.8 km
B*
2.2954e-4
RAAN
43.4496°
Arg perigee
73.4134°
Mean anomaly
286.7009°
Rev number
5,930

§ Raw data

STARLINK-350031 65413U 25192K   26263.91461404  .00007387  00000+0  22954-3 0  99952 65413  53.1593  43.4496 0001278  73.4134 286.7009 15.34401568 59303

JSON: /api/v1/satellites/65413 · /tle

For live sub-satellite position, see the globe view (requires WebGL).

§ Visibility from observer

Set your observer location to see the next 7 days of passes ≥ 10°. The values pass through the URL so the page stays shareable.

No JS? Fill the form by hand. The geolocation button needs JavaScript.